Погода в Джизаке

Погода в Джизаке : погода сейчас, прогноз погоды и архив. Всё, что Вы хотите узнать о погоде в Джизаке!

Хотите узнать прогноз погоды в Джизаке? Тогда Вам сюда: Погода в Джизаке

Поиск расширенной информации на нашем сайте:

Другие новости

Новости СМИ2

Главная страница сайта

Новости сайта

03.07.2017

Напоминаем, что на нашем специализированном сайте Метеоцентр.Азия вы можете получить высокодетализированные автоматические прогнозы погоды по пунктам России, СНГ и мира в авиационном формате (включающие направление и скорость ветра, видимость, явления погоды, количество и форму облачности, нижнюю и верхнюю границу облачности).


Погода в Джизаке - сегодня

Время (UTC), дата Ветер
(°,м/с) 
Видим.   Явления Облачность Т
(°С)
Тd
(°С)
f(%) Тe
(°С)
Pmin
(гПа)
dP
(гПа)
Po
(мм)
O2
(г/м3)
Тmin Tmax R s Состояние
почвы
09 19.07.17 280 (З) 20000 м    ясно 
+33.6 +16 35 +45  1007.6  -0.7  728  258           
12 19.07.17 040 (СВ) 20000 м    ясно 
+34.6 +17.8 37 +50  1005.9  -1.5  726  256           
15 19.07.17 тихо ()   20000 м    ясно 
+31.2 +15.2 38 +41  1006.1  -0.3  726  259    +34.6       
18 19.07.17 тихо ()   н/о    ясно 
+22.8 +13.1 54 +29  1007.3  0.1  726  268    +34.6       
21 19.07.17 350 (С) н/о    ясно 
+20 +11.8 59 +24  1007.6  -0.1  726  270           
00 20.07.17 250 (З) 10 км    ясно 
+17.9 +9.8 59 +21  1007.7  -0.3  726  273    +1.5       
03 20.07.17 330 (СЗ) 20000 м    ясно 
+24.2 +13.8 52 +32  1006.7  726  266  +17.6        сухая 
06 20.07.17 340 (С) 20000 м    ясно 
+31.2 +19.3 49 +49  1005.6  -0.1  726  258  +17.6         
09 20.07.17 340 (С) 20000 м    ясно 
+32.6 +17.5 41 +47  1005  -0.5  726  257           
12 20.07.17 040 (СВ) 20000 м    ясно 
+34.2 +17.3 37 +48  1003.4  -1.2  725  256           
15 20.07.17 070 (В) 20000 м    ясно 
+31.8 +17 41 +45  1003.2  -0.6  724  258    +34.3       
18 20.07.17 180 (Ю) н/о    ясно 
+22.2 +13.4 57 +29  1004.9  0.4  725  267    +34.3       
21 20.07.17 070 (В) н/о    ясно 
+20.6 +12.1 58 +25  1004.4  -0.8  724  269           
00 21.07.17 340 (С) 10 км    ясно 
+18.8 +11.1 61 +23  1004.1  0.4  724  271           
03 21.07.17 350 (С) 20000 м    ясно 
+24.4 +14.1 53 +32  1004.6  0.3  724  265           
06 21.07.17 020 (С) 20000 м    ясно 
+30.5 +17.3 45 +45  1003.9  0.2  725  259  +18.4         
09 21.07.17 020 (С) 20000 м    ясно 
+34.8 +18.9 39 +52  1003.2  -0.1  725  255           
12 21.07.17 040 (СВ) 20000 м    ясно 
+35.5 +18.3 36 +52  1002.2  -0.9  724  254           
15 21.07.17 110 (В) 20000 м    ясно 
+32.2 +18.5 44 +49  1002.6  724  257    +37.3       
18 21.07.17 230 (ЮЗ) н/о    ясно 
+23.9 +15.4 59 +34  1004.6  0.8  724  265    +37.3       
21 21.07.17 240 (ЮЗ) н/о    ясно 
+20.9 +12 57 +26  1004.4  -0.6  724  269           
00 22.07.17 340 (С) 10 км    ясно 
+19.6 +11.4 59 +25  1004.8  0.2  724  270           
03 22.07.17 010 (С) 20000 м    ясно 
+26 +14.3 48 +34  1004.7  0.8  725  264  +19.6        сухая 
06 22.07.17 050 (СВ) 20000 м    ясно 
+31.8 +16.9 41 +45  1004.4  0.5  725  258  +18.7         
09 22.07.17 350 (С) 20000 м    ясно 
+34.2 +17.3 37 +48  1003.8  -0.2  725  256           
Время (UTC), дата Ветер
(°,м/с) 
Видим.   Явления Облачность Т
(°С)
Тd
(°С)
f(%) Тe
(°С)
Pmin
(гПа)
dP
(гПа)
Po
(мм)
O2
(г/м3)
Тmin Tmax R s Состояние
почвы

Для получения пояснительной информации подведите курсор к названию столбца.

ПОГОДА в Джизаке - архив

Всё, что Вы хотите узнать о погоде в Джизаке - удобно и подробно!

Выберите нужную дату (начиная с 1 января 2015* года) и нажмите кнопку "Найти".
Будут отображены архивные сводки погоды по пункту Джизак, начиная с указанной даты.


Отображать данные в формате CSV (для использования в таблицах Excel)


Внимание! Наш архив погоды предназначен исключительно для личного некоммерческого использования в познавательных целях. Если Вам необходимы официальные справки о состоянии погоды (для производственных, юридических, коммерческих и т.п. целей), обращайтесь в органы Росгидромета.

*Примечание: данная дата относится к архиву по метеостанциям СССР (Россия, СНГ, Балтия).
Архив по метеостанциям Зарубежной Европы и Азии (кроме Китая) хранится 10 дней, по другим регионам земного шара (Китай, Африка, Америка, Австралия, Океания) - 1 день.

Джизак - район местоположения метеостанции


Название, широта, долгота, высота метеостанции:
Джизак 40.1°ш. 67.8°д. 345 м над ур. моря [Узбекистан]

Дополнительная информация

В oтличие oт бoльшинства пoгoдных сайтoв мы публикуем пoдрoбную метеoинфoрмацию в детальнoм прoфессиoнальнoм фoрмате.

Характеристики температуры и влажнoсти вoздуха измеряются на высoте 2 м в тени вдали oт зданий и деревьев.
Скoрoсть ветра измеряется на высoте 10 м (на урoвне рoста челoвека скoрoсть ветра ниже в 1.5-2 раза). Если метеoстанция нахoдится в гoрoде или в лесу, тo скoрoсть ветра занижена на 2-4 м/с пo сравнению с oткрытым местoм. Скoрoсть ветра над акватoриями крупных рек и oзёр, а также на вершинах хoлмoв на 2-5 м/с выше, чем в oбычных услoвиях.
Атмoсфернoе давление в разных тoчках местнoсти мoжет значительнo oтличаться oт давления на метеoстанции, в зависимoсти oт услoвий рельефа (при пoдъёме на 10 м давление пoнижается примернo на 1 мм рт.ст.).